Hourly Weather Kozuchowek

Today, 26 October, Monday

Time Temperature Precipitation Wind Pressure Humidity
00:00 +10°C° 0 mm 4 mps 745 mmHg 84%
01:00 +10°C° 0 mm 4 mps 745 mmHg 85%
02:00 +10°C° 0 mm 4 mps 744 mmHg 87%
03:00 +10°C° 0 mm 4 mps 744 mmHg 89%
04:00 +9°C° 0 mm 5 mps 744 mmHg 91%
05:00 +9°C° 0 mm 5 mps 744 mmHg 92%
06:00 +9°C° 0 mm 5 mps 743 mmHg 93%
07:00 +9°C° 0 mm 5 mps 743 mmHg 94%
08:00 +12°C° 0 mm 5 mps 743 mmHg 89%
09:00 +13°C° 0 mm 5 mps 743 mmHg 84%
10:00 +14°C° 0 mm 6 mps 743 mmHg 79%
11:00 +15°C° 0 mm 6 mps 743 mmHg 75%
12:00 +16°C° 0 mm 6 mps 743 mmHg 71%
13:00 +17°C° 0 mm 6 mps 743 mmHg 67%
14:00 +16°C° 0 mm 5 mps 742 mmHg 69%
15:00 +15°C° 0 mm 5 mps 742 mmHg 72%
16:00 +15°C° 0 mm 4 mps 742 mmHg 74%
17:00 +14°C° 0 mm 5 mps 742 mmHg 76%
18:00 +14°C° 0 mm 5 mps 742 mmHg 79%
19:00 +13°C° 0 mm 5 mps 742 mmHg 81%
20:00 +13°C° 0 mm 5 mps 742 mmHg 82%
21:00 +12°C° 0 mm 5 mps 742 mmHg 83%
22:00 +12°C° 0 mm 5 mps 742 mmHg 84%
23:00 +12°C° 0 mm 5 mps 742 mmHg 83%

Tomorrow, 27 October, Tuesday

Time Temperature Precipitation Wind Pressure Humidity
00:00 +13°C° 0 mm 5 mps 742 mmHg 83%
01:00 +13°C° 0 mm 4 mps 742 mmHg 82%
02:00 +13°C° 0 mm 4 mps 742 mmHg 83%
03:00 +13°C° 0 mm 4 mps 742 mmHg 83%
04:00 +13°C° 0 mm 4 mps 742 mmHg 83%
05:00 +13°C° 0 mm 4 mps 743 mmHg 83%
06:00 +13°C° 0 mm 4 mps 743 mmHg 84%
07:00 +13°C° 0 mm 4 mps 743 mmHg 84%
08:00 +14°C° 0 mm 4 mps 743 mmHg 80%
09:00 +15°C° 0 mm 4 mps 743 mmHg 77%
10:00 +15°C° 0 mm 5 mps 744 mmHg 74%
11:00 +16°C° 0 mm 5 mps 744 mmHg 71%
12:00 +17°C° 0 mm 5 mps 744 mmHg 68%
13:00 +19°C° 0 mm 5 mps 744 mmHg 65%
14:00 +18°C° 0 mm 4 mps 744 mmHg 68%
15:00 +17°C° 0 mm 4 mps 743 mmHg 71%
16:00 +15°C° 0 mm 4 mps 743 mmHg 73%
17:00 +15°C° 0 mm 4 mps 743 mmHg 75%
18:00 +14°C° 0 mm 4 mps 743 mmHg 76%
19:00 +14°C° 0 mm 4 mps 744 mmHg 78%
20:00 +13°C° 0 mm 4 mps 744 mmHg 80%
21:00 +13°C° 0 mm 4 mps 744 mmHg 81%
22:00 +13°C° 0 mm 4 mps 744 mmHg 83%
23:00 +12°C° 0 mm 4 mps 744 mmHg 86%

Day after tomorrow, 28 October, Wednesday

Time Temperature Precipitation Wind Pressure Humidity
00:00 +12°C° 0 mm 3 mps 744 mmHg 88%
01:00 +11°C° 0 mm 3 mps 744 mmHg 90%
02:00 +11°C° 0 mm 3 mps 744 mmHg 91%
03:00 +10°C° 0 mm 2 mps 745 mmHg 92%
04:00 +10°C° 0 mm 2 mps 745 mmHg 93%
05:00 +10°C° 0 mm 2 mps 745 mmHg 93%
06:00 +11°C° 0 mm 1 mps 745 mmHg 94%
07:00 +11°C° 0 mm 1 mps 746 mmHg 94%
08:00 +12°C° 0 mm 1 mps 746 mmHg 90%
09:00 +13°C° 0 mm 1 mps 746 mmHg 86%
10:00 +13°C° 0 mm 1 mps 746 mmHg 82%
11:00 +14°C° 0 mm 1 mps 746 mmHg 78%
12:00 +15°C° 0 mm 2 mps 746 mmHg 73%
13:00 +16°C° 0 mm 2 mps 746 mmHg 69%
14:00 +15°C° 0 mm 2 mps 746 mmHg 72%
15:00 +15°C° 0 mm 1 mps 746 mmHg 74%
16:00 +14°C° 0 mm 1 mps 746 mmHg 77%
17:00 +14°C° 0 mm 1 mps 746 mmHg 79%
18:00 +13°C° 0 mm 1 mps 746 mmHg 81%
19:00 +13°C° 0 mm 1 mps 746 mmHg 82%
20:00 +13°C° 0 mm 2 mps 746 mmHg 84%
21:00 +13°C° 0 mm 2 mps 746 mmHg 85%
22:00 +12°C° 0 mm 2 mps 746 mmHg 86%
23:00 +12°C° 0 mm 2 mps 746 mmHg 87%

29 October, Thursday

Time Temperature Precipitation Wind Pressure Humidity
00:00 +12°C° 0 mm 2 mps 746 mmHg 88%
01:00 +12°C° 0 mm 2 mps 746 mmHg 89%
02:00 +12°C° 0 mm 2 mps 746 mmHg 90%
03:00 +10°C° 0 mm 2 mps 746 mmHg 91%
04:00 +10°C° 0 mm 2 mps 746 mmHg 91%
05:00 +10°C° 0 mm 2 mps 746 mmHg 90%
06:00 +10°C° 0 mm 2 mps 746 mmHg 88%
07:00 +9°C° 0 mm 2 mps 746 mmHg 87%
08:00 +11°C° 0 mm 3 mps 747 mmHg 80%
09:00 +12°C° 0 mm 3 mps 747 mmHg 73%
10:00 +13°C° 0 mm 3 mps 747 mmHg 66%
11:00 +14°C° 0 mm 4 mps 747 mmHg 63%
12:00 +14°C° 0 mm 4 mps 747 mmHg 60%
13:00 +15°C° 0 mm 5 mps 747 mmHg 57%
14:00 +14°C° 0 mm 4 mps 747 mmHg 61%
15:00 +13°C° 0 mm 3 mps 747 mmHg 64%
16:00 +13°C° 0 mm 3 mps 747 mmHg 68%
17:00 +12°C° 0.1 mm 3 mps 748 mmHg 70%
18:00 +12°C° 0.1 mm 3 mps 748 mmHg 73%
19:00 +12°C° 0.1 mm 3 mps 748 mmHg 75%
20:00 +11°C° 0.1 mm 3 mps 749 mmHg 78%
21:00 +10°C° 0.1 mm 3 mps 749 mmHg 81%
22:00 +10°C° 0.1 mm 2 mps 749 mmHg 84%
23:00 +9°C° 0 mm 3 mps 749 mmHg 85%

30 October, Friday

Time Temperature Precipitation Wind Pressure Humidity
00:00 +9°C° 0 mm 3 mps 749 mmHg 86%
01:00 +8°C° 0 mm 3 mps 749 mmHg 87%
02:00 +8°C° 0 mm 3 mps 750 mmHg 88%
03:00 +8°C° 0 mm 3 mps 750 mmHg 89%
04:00 +7°C° 0 mm 3 mps 750 mmHg 89%
05:00 +8°C° 0 mm 3 mps 750 mmHg 88%
06:00 +8°C° 0 mm 3 mps 750 mmHg 87%
07:00 +7°C° 0 mm 4 mps 750 mmHg 85%
08:00 +8°C° 0 mm 4 mps 750 mmHg 81%
09:00 +10°C° 0 mm 4 mps 750 mmHg 77%
10:00 +10°C° 0 mm 5 mps 750 mmHg 73%
11:00 +10°C° 0 mm 5 mps 750 mmHg 73%
12:00 +12°C° 0 mm 5 mps 750 mmHg 72%
13:00 +12°C° 0 mm 5 mps 750 mmHg 72%
14:00 +12°C° 0 mm 4 mps 750 mmHg 74%
15:00 +11°C° 0 mm 4 mps 750 mmHg 77%
16:00 +11°C° 0 mm 3 mps 750 mmHg 79%
17:00 +11°C° 0 mm 4 mps 750 mmHg 81%
18:00 +11°C° 0 mm 4 mps 750 mmHg 83%
19:00 +10°C° 0 mm 4 mps 750 mmHg 84%
20:00 +10°C° 0 mm 4 mps 750 mmHg 84%
21:00 +10°C° 0 mm 4 mps 750 mmHg 85%
22:00 +10°C° 0 mm 4 mps 750 mmHg 85%
23:00 +10°C° 0 mm 4 mps 750 mmHg 86%

31 October, Saturday

Time Temperature Precipitation Wind Pressure Humidity
00:00 +10°C° 0 mm 3 mps 750 mmHg 87%
01:00 +9°C° 0 mm 3 mps 750 mmHg 88%
02:00 +9°C° 0 mm 3 mps 750 mmHg 88%
03:00 +9°C° 0 mm 3 mps 750 mmHg 89%
04:00 +9°C° 0 mm 3 mps 750 mmHg 90%
05:00 +9°C° 0 mm 3 mps 750 mmHg 90%
06:00 +8°C° 0 mm 3 mps 751 mmHg 90%
07:00 +8°C° 0 mm 3 mps 751 mmHg 89%
Show more